Gallup, NM

12:37 AM MST on February 23, 2017 (GMT -0700)
Gallup Municipal

Weather History for KGUP - July, 2013

Change the Weather History Date:

Sunday, July 14, 2013

  Actual Average Record
Temperature  
Mean Temperature 73 °F -  
Max Temperature 88 °F 86 °F 100 °F (2003)
Min Temperature 59 °F 52 °F 41 °F (1997)
Cooling Degree Days 8    
Growing Degree Days 23 (Base 50)    
Moisture  
Dew Point 53 °F    
Average Humidity 56    
Maximum Humidity 93    
Minimum Humidity 24    
Precipitation  
Precipitation 0.00 in - - ()
Sea Level Pressure  
Sea Level Pressure 29.78 in    
Wind  
Wind Speed 4 mph (West)    
Max Wind Speed 18 mph    
Max Gust Speed 25 mph    
Visibility 10 miles    
Events      
Averages and records for this station are not official NWS values.
T = Trace of Precipitation, MM = Missing Value Source: NWS Daily Summary

Daily Weather History Graph

Daily Weather History Graph

Search for Another Location

Airport or City:

Trip Planner

Search our weather history database for the weather conditions in past years. The results will help you decide how hot, cold, wet, or windy it might be!

Date:

Astronomy

Jul. 14, 2013 Rise Set
Actual Time 6:10 AM MDT 8:31 PM MDT
Civil Twilight 5:41 AM MDT 9:00 PM MDT
Nautical Twilight 5:05 AM MDT 9:36 PM MDT
Astronomical Twilight 4:26 AM MDT 10:15 PM MDT
Moon 12:15 PM MDT (7/14) No Moon Set
Length of Visible Light 15h 18m
Length of Day
14h 20m
Waxing Crescent, 35% of the Moon is Illuminated
Jul 14
Waxing Crescent
Jul 15
First Quarter
Jul 22
Full
Jul 29
Last Quarter
Aug 6
New

Hourly Weather History & Observations

Time (MDT) Temp. Heat Index Dew Point Humidity Pressure Visibility Wind Dir Wind Speed Gust Speed Precip Events Conditions
12:53 AM 63.0 °F - 59.0 °F 87% 29.75 in 10.0 mi Calm Calm - 0.00 in   Overcast
1:53 AM 63.0 °F - 57.9 °F 84% 29.74 in 10.0 mi Calm Calm - N/A   Mostly Cloudy
2:53 AM 62.1 °F - 59.0 °F 90% 29.73 in 10.0 mi Calm Calm - N/A   Mostly Cloudy
3:53 AM 62.1 °F - 57.0 °F 84% 29.76 in 10.0 mi East 3.5 mph - N/A   Mostly Cloudy
4:53 AM 62.1 °F - 55.0 °F 78% 29.87 in 10.0 mi ENE 3.5 mph - N/A   Mostly Cloudy
5:53 AM 60.1 °F - 55.9 °F 86% 29.89 in 10.0 mi Calm Calm - N/A   Clear
6:53 AM 59.0 °F - 55.9 °F 90% 29.92 in 10.0 mi Calm Calm - N/A   Clear
7:53 AM 59.0 °F - 57.0 °F 93% 29.92 in 10.0 mi Calm Calm - N/A   Clear
8:53 AM 64.0 °F - 57.9 °F 80% 29.90 in 10.0 mi Calm Calm - N/A   Clear
9:53 AM 71.1 °F - 57.0 °F 61% 29.84 in 10.0 mi Calm Calm - N/A   Clear
10:53 AM 77.0 °F - 53.1 °F 43% 29.80 in 10.0 mi Calm Calm - N/A   Clear
11:53 AM 80.1 °F 80.1 °F 55.0 °F 42% 29.75 in 10.0 mi ENE 5.8 mph - N/A   Clear
12:53 PM 82.9 °F - 51.1 °F 33% 29.72 in 10.0 mi NE 9.2 mph - N/A   Clear
1:53 PM 84.9 °F - 48.9 °F 29% 29.68 in 10.0 mi Variable 4.6 mph - N/A   Clear
2:53 PM 86.0 °F - 48.0 °F 27% 29.65 in 10.0 mi Variable 3.5 mph - N/A   Clear
3:18 PM 87.8 °F - 51.8 °F 29% 30.18 in 10.0 mi WNW 17.3 mph - N/A   Clear
3:53 PM 87.1 °F - 52.0 °F 30% 29.61 in 10.0 mi NW 16.1 mph - N/A   Clear
4:53 PM 86.0 °F - 46.9 °F 26% 29.59 in 10.0 mi NNW 16.1 mph - N/A   Clear
5:53 PM 87.1 °F - 46.9 °F 25% 29.58 in 10.0 mi NNW 6.9 mph - N/A   Clear
6:53 PM 84.9 °F - 44.1 °F 24% 29.62 in 10.0 mi West 5.8 mph - N/A   Clear
7:29 PM 75.2 °F - 48.2 °F 38% 30.16 in 10.0 mi South 17.3 mph 24.2 mph N/A   Mostly Cloudy
7:53 PM 75.9 °F - 48.9 °F 38% 29.71 in 10.0 mi SSW 18.4 mph 25.3 mph N/A   Clear
8:53 PM 72.0 °F - 53.1 °F 51% 29.74 in 10.0 mi WSW 11.5 mph - N/A   Clear
9:53 PM 68.0 °F - 55.0 °F 63% 29.77 in 10.0 mi WSW 17.3 mph - N/A   Overcast
10:53 PM 68.0 °F - 54.0 °F 61% 29.74 in 10.0 mi WSW 12.7 mph - N/A   Overcast
11:53 PM 66.9 °F - 55.0 °F 66% 29.69 in 10.0 mi SSW 13.8 mph - N/A   Mostly Cloudy